Location: Unspecified
(40.9447°N, 78.9903°W)
Time: 22:20:36
(UTC-04:00)

Cosmos 2058 - Pass Details

Date: 30 July 2021
Orbit: 560 x 584 km, 82.5° (Epoch: 28 September)

Event Time Altitude Azimuth Distance (km) Brightness Sun altitude
Rises 22:05:14 0° 226° (SW) 2,781 6.5 -15.2°
Reaches altitude 10° 22:08:03 10° 246° (WSW) 1,892 5.8 -15.6°
Maximum altitude 22:10:51 17° 288° (WNW) 1,483 5.9 -16.0°
Drops below altitude 10° 22:13:41 10° 331° (NNW) 1,908 6.7 -16.4°
Sets 22:16:32 0° 351° (N) 2,816 7.3 -16.8°
